Location: Newark
(21.1200°N, 73.4000°E)
Time: 10:20:45
(UTC+00:00)

Vanguard 1 Rocket - Pass Details

Date: 19 January 2021
Orbit: 654 x 4223 km, 34.3° (Epoch: 07 March)

Event Time Altitude Azimuth Distance (km) Brightness Sun altitude
Rises 16:10:03 0° 277° (W) 4,711 11.7 -46.4°
Reaches altitude 10° 16:13:09 10° 266° (W) 4,127 11.3 -47.1°
Maximum altitude 16:23:01 30° 210° (SSW) 3,884 10.6 -49.4°
Drops below altitude 10° 16:39:17 10° 157° (SSE) 6,763 11.7 -53.1°
Sets 16:46:40 0° 148° (SSE) 8,191 12.1 -54.8°
